Terminal Aerodrome Forecast
Issued by NWS

Home | Current Version | Previous Version | Graphics & Text | Print | Product List | Glossary On
Versions: 1 2 3 4 5 6 7 8 9 10 11 12 13 14 15 16 17 18 19 20 21 22 23 24 25 26 27
595
FTUS43 KLOT 212323
TAFORD
TAF
KORD 212323Z 2200/2306 05011KT P6SM FEW050 FEW250
     FM220300 03013G21KT P6SM BKN018
     FM221500 05013KT P6SM BKN025
     FM221900 07010KT P6SM FEW035 SCT250
     FM230100 10008KT P6SM SCT150 BKN250=

USA.gov is the U.S. government's official web portal to all federal, state and local government web resources and services.